Main page
METAR-TAF:

METAR-TAF

Airports :

Chapecó Airport

Chapecó, Santa Catarina, Brazil

latitude: 27-08-02S, longitude: 052-39-43W, elevation: 654 m

Current weather observation

The report was made 1 hour and 39 minutes ago, at 00:00 UTC
Wind 6 kt from the South/Southeast
Temperature 18°C
Humidity 56%
Pressure 1019 hPa
Visibility 10 km or more
no clouds below 1500 m and no cumulonimbus

METAR: SBCH 030000Z 15006KT CAVOK 18/09 Q1019

Time: 22:39 (01:39 UTC)


TAF: missing

Weather observations and forecasts of more than 4000 airports (METAR and TAF reports).

The available stations are represented by yellow and red dots on the map.

Hover mouse over dot to see the name of the station.

Then click to see weather observations and forecasts.

To change the map : click on the green buttons with a black cross to zoom in, on the green button with a dash to zoom out, or on the green arrows for adjacent maps.


METAR-TAF: